Boothville, LA

8:14 PM CDT on July 27, 2017 (GMT -0500)
Boothville

Weather History for KBVE - July, 2013

Change the Weather History Date:

Monday, July 29, 2013

  Actual Average (KAXO) Record (KAXO)
Temperature  
Mean Temperature 84 °F -  
Max Temperature 90 °F 84 °F 96 °F (1997)
Min Temperature 78 °F 80 °F 75 °F (2008)
Cooling Degree Days 18    
Growing Degree Days 34 (Base 50)    
Moisture  
Dew Point 76 °F    
Average Humidity 78    
Maximum Humidity 94    
Minimum Humidity 59    
Precipitation  
Precipitation 0.00 in - - ()
Sea Level Pressure  
Sea Level Pressure 30.07 in    
Wind  
Wind Speed 3 mph (NW)    
Max Wind Speed 9 mph    
Max Gust Speed -    
Visibility 10 miles    
Events      
Averages and records for this station are not official NWS values.
T = Trace of Precipitation, MM = Missing Value Source: NWS Daily Summary

Daily Weather History Graph

Daily Weather History Graph

Search for Another Location

Airport or City:

Trip Planner

Search our weather history database for the weather conditions in past years. The results will help you decide how hot, cold, wet, or windy it might be!

Date:

Astronomy

Jul. 29, 2013 Rise Set
Actual Time 6:16 AM CDT 7:51 PM CDT
Civil Twilight 5:50 AM CDT 8:17 PM CDT
Nautical Twilight 5:19 AM CDT 8:48 PM CDT
Astronomical Twilight 4:46 AM CDT 9:20 PM CDT
Moon No Moon Rise 1:18 PM CDT (7/29)
Length of Visible Light 14h 27m
Length of Day
13h 35m
Waning Gibbous, 50% of the Moon is Illuminated
Jul 29
Waning Gibbous
Jul 29
Last Quarter
Aug 6
New
Aug 14
First Quarter
Aug 20
Full

Hourly Weather History & Observations

Time (CDT) Temp. Heat Index Dew Point Humidity Pressure Visibility Wind Dir Wind Speed Gust Speed Precip Events Conditions
12:51 AM 79.0 °F - 77.0 °F 94% 30.02 in 10.0 mi Calm Calm - N/A   Partly Cloudy
1:51 AM 79.0 °F - 77.0 °F 94% 30.01 in 10.0 mi WNW 3.5 mph - N/A   Clear
2:51 AM 78.1 °F - 75.9 °F 93% 30.00 in 10.0 mi West 4.6 mph - N/A   Clear
3:51 AM 79.0 °F - 77.0 °F 94% 30.00 in 10.0 mi WNW 5.8 mph - N/A   Clear
4:51 AM 79.0 °F - 77.0 °F 94% 30.01 in 10.0 mi WNW 4.6 mph - N/A   Clear
5:51 AM 79.0 °F - 77.0 °F 94% 30.03 in 10.0 mi WNW 4.6 mph - N/A   Clear
6:51 AM 80.1 °F 86.4 °F 78.1 °F 94% 30.05 in 10.0 mi Calm Calm - N/A   Clear
7:51 AM 82.9 °F 92.8 °F 78.1 °F 85% 30.08 in 10.0 mi NNW 3.5 mph - N/A   Clear
8:51 AM 84.0 °F 91.9 °F 75.0 °F 74% 30.08 in 10.0 mi NNW 8.1 mph - N/A   Clear
9:51 AM 84.9 °F 93.3 °F 75.0 °F 72% 30.09 in 10.0 mi North 6.9 mph - N/A   Clear
10:51 AM 86.0 °F 95.1 °F 75.0 °F 70% 30.11 in 10.0 mi NNW 9.2 mph - N/A   Partly Cloudy
11:51 AM 88.0 °F 97.5 °F 75.0 °F 65% 30.09 in 10.0 mi Variable 4.6 mph - N/A   Partly Cloudy
12:51 PM 88.0 °F 97.5 °F 75.0 °F 65% 30.10 in 10.0 mi Variable 3.5 mph - N/A   Clear
1:51 PM 88.0 °F 98.5 °F 75.9 °F 67% 30.09 in 10.0 mi NE 4.6 mph - N/A   Clear
2:51 PM 89.1 °F 100.2 °F 75.9 °F 65% 30.08 in 10.0 mi ENE 4.6 mph - N/A   Clear
3:51 PM 89.1 °F 98.0 °F 73.9 °F 61% 30.07 in 10.0 mi East 3.5 mph - N/A   Clear
4:51 PM 88.0 °F 95.6 °F 73.0 °F 61% 30.07 in 10.0 mi ENE 3.5 mph - N/A   Clear
5:51 PM 89.1 °F 97.0 °F 73.0 °F 59% 30.07 in 10.0 mi East 3.5 mph - N/A   Clear
6:51 PM 88.0 °F 96.5 °F 73.9 °F 63% 30.07 in 10.0 mi Calm Calm - N/A   Clear
7:51 PM 84.9 °F 95.3 °F 77.0 °F 77% 30.08 in 10.0 mi SW 3.5 mph - N/A   Partly Cloudy
8:32 PM 84.2 °F 96.1 °F 78.8 °F 84% 30.08 in 10.0 mi Calm Calm - N/A   Mostly Cloudy
8:51 PM 82.9 °F 91.8 °F 77.0 °F 82% 30.09 in 10.0 mi West 3.5 mph - N/A   Mostly Cloudy
9:51 PM 82.9 °F 91.8 °F 77.0 °F 82% 30.10 in 10.0 mi WSW 3.5 mph - N/A   Scattered Clouds
10:51 PM 82.9 °F 91.8 °F 77.0 °F 82% 30.11 in 10.0 mi SW 3.5 mph - N/A   Scattered Clouds
11:51 PM 82.9 °F 90.8 °F 75.9 °F 79% 30.12 in 10.0 mi Calm Calm - N/A   Clear